Вернуться в каталог

CZ-6A DEB

АктивенPO
NORAD 60839·DEBRIS·🇨🇳 China

Запущен Aug 6, 2024 с Taiyuan Satellite Launch Center

Loading…

Ближайшие Пролёты (ближайшие 24 часа)

TLE

СвежийSource: Space-Track

Эпоха: Sep 14, 2026, 00:24 UTC

1 60839U 24140HS  26257.01708831  .00000224  00000-0  17332-3 0  9994
2 60839  88.9496 267.1254 0262237  66.4844 296.3640 13.74074826104617

Отслеживайте CZ-6A DEB в реальном времени с AllMySat

Download on the App Store